Content
SEND FEEDBACK

Daily
Averages
Monthly
Summary
Brazil

TERESINA, PIAUI


Home > South America > Brazil > Piaui
Elevation: 328 feet     Latitude: 05 03S     Longitude: 042 48W

WEATHER
 
SELECT A DAY
Number of Records: 163,885;   Date Range: 6/30/96 - 8/10/14
 
SHARE

PRINT THIS DATA

[ ← Previous Day ]
WEATHER ALMANAC - MARCH 15, 2013
[ Next Day → ]
[ °C ]   °F
Weather ElementAverageHighLow
Temperature86.7 °F96.8 °F (3:00 pm)78.8 °F (2:00 am)
Dewpoint76.3 °F78.8 °F (7:28 am)71.6 °F (10:00 pm)
Humidity72.5 %94 % (2:00 am)41 % (3:00 pm)
Barometer28.75 in29.86 in (9:00 am) (7:00 pm)
Wind Speed2.2 mph4.6 mph (3:00 pm)
Weather ElementAverage
Visibility7.3 mi
Wind DirectionESE (105.4 °)

Weather ElementTotal
Precipitation---
Cooling Degree Days22.8 (Base 65)
Growing Degree Days37.8 (Base 50)
Averaged from 29 records on March 15, 2013
WEATHER CONDITIONS BREAKOUT
WIND DIRECTION BREAKOUT
WEATHER BY HOUR - MARCH 15, 2013
[ °C ]   °F
Local TimeTemperatureDewpointHumidityBarometerVisibilityWind DirectionWind SpeedGust SpeedPrecipitationEventsConditions
1:00 AM80.6 °F77.0 °F89 %29.77 inNorth (360°)2.3 mphClear
2:00 AM78.8 °F77.0 °F94 %29.77 inCalmClear
3:00 AM79.0 °F77.0 °F92 %29.76 in12.0 miCalm
3:00 AM78.8 °F77.0 °F94 %29.77 inCalmClear
4:00 AM78.8 °F77.0 °F94 %29.74 in6.2 miCalmMostly Cloudy
5:00 AM78.8 °F77.0 °F94 %29.77 in6.2 miCalmMostly Cloudy
6:00 AM80.6 °F77.0 °F89 %29.80 in6.2 miCalmMostly Cloudy
7:00 AM80.6 °F77.0 °F89 %29.80 in6.2 miENE (60°)1.2 mphMostly Cloudy
7:28 AM82.4 °F78.8 °F89 %29.83 in6.2 miNE (50°)1.2 mphScattered Clouds
8:00 AM82.4 °F77.0 °F84 %29.83 in6.2 miENE (70°)1.2 mphOvercast
8:06 AM82.4 °F78.8 °F89 %29.83 in6.2 miEast (80°)1.2 mphMostly Cloudy
9:00 AM84.0 °F78.0 °F76 %29.85 in12.0 miEast (90°)1.2 mphMostly Cloudy
9:00 AM84.2 °F77.0 °F79 %29.86 in6.2 miEast (90°)1.2 mphMostly Cloudy
10:00 AM87.8 °F77.0 °F70 %29.86 in6.2 miSSE (160°)3.5 mphMostly Cloudy
11:00 AM91.4 °F77.0 °F63 %29.83 in6.2 miWest (260°)3.5 mphMostly Cloudy
12:00 PM93.2 °F77.0 °F59 %29.80 in6.2 miSSW (200°)2.3 mphMostly Cloudy
1:00 PM95.0 °F77.0 °F56 %29.77 in6.2 miSouth (180°)3.5 mphMostly Cloudy
2:00 PM95.0 °F75.2 °F53 %29.74 in6.2 miSouth (180°)3.5 mphMostly Cloudy
3:00 PM96.0 °F75.0 °F41 %29.71 in12.0 miSSW (210°)4.6 mphPartly Cloudy
3:00 PM96.8 °F75.2 °F50 %29.71 in6.2 miSSW (210°)4.6 mphScattered Clouds
4:00 PM96.8 °F73.4 °F47 %29.68 in6.2 miSSW (200°)4.6 mphScattered Clouds
5:00 PM96.8 °F73.4 °F47 %29.68 in6.2 miWSW (240°)2.3 mphPartly Cloudy
6:00 PM95.0 °F75.2 °F53 %29.68 inSSW (210°)4.6 mphClear
7:00 PM91.4 °F77.0 °F63 %29.71 inCalmClear
8:00 PM87.8 °F77.0 °F70 %6.2 miCalmThunderstormScattered Clouds
9:00 PM88.0 °F77.0 °F63 %29.77 in12.0 miNNE (30°)4.6 mphMostly Cloudy
9:00 PM87.8 °F77.0 °F70 %29.77 inNNE (30°)4.6 mphClear
10:00 PM84.2 °F71.6 °F66 %29.77 inNorth (10°)2.3 mphClear
11:00 PM80.6 °F73.4 °F79 %29.80 inNNE (30°)4.6 mphClear
Hourly data recorded from SBTE, located miles away from Teresina, Piaui







STORIES FROM OUR PARTNERS